Terminal Aerodrome Forecast
Issued by NWS Boise, ID

Home | Current Version | Previous Version | Text Only | Print | Product List | Glossary On
Versions: 1 2 3 4 5 6 7 8 9 10 11 12 13
000
FTUS45 KBOI 190523
TAFBNO
TAF
KBNO 190523Z 1906/2006 VRB04KT P6SM BKN120
     FM191800 24012G22KT P6SM SCT120
     FM192300 29020G30KT P6SM BKN120
     FM200300 27012KT P6SM SCT200=

USA.gov is the U.S. government's official web portal to all federal, state and local government web resources and services.